| time (UTC) | temp F | wind direction | speed MPH | gust MPH | rain 1hr in | rain 24hr in | rain mn in | humidity % | barometer mb |
| 20260508213025 | 69 | 40 | 7.0 | 13.0 | 0.00 | 0.00 | 0.00 | 53 | 1013.9 |
| 20260508211510 | 69 | 349 | 4.0 | 11.0 | 0.00 | 0.00 | 0.00 | 53 | 1013.9 |
| 20260508210015 | 70 | 44 | 1.0 | 7.0 | 0.00 | 0.00 | 0.00 | 54 | 1013.9 |
| 20260508204518 | 69 | 339 | 5.0 | 14.0 | 0.00 | 0.00 | 0.00 | 49 | 1014.2 |
| 20260508203022 | 70 | 16 | 7.0 | 11.0 | 0.00 | 0.00 | 0.00 | 49 | 1014.3 |
| 20260508201527 | 70 | 20 | 2.0 | 14.0 | 0.00 | 0.00 | 0.00 | 53 | 1014.2 |
| 20260508200018 | 69 | 352 | 7.0 | 11.0 | 0.00 | 0.00 | 0.00 | 49 | 1014.5 |
| 20260508194510 | 70 | 46 | 5.0 | 12.0 | 0.00 | 0.00 | 0.00 | 47 | 1014.8 |
| 20260508193021 | 69 | 29 | 5.0 | 14.0 | 0.00 | 0.00 | 0.00 | 51 | 1015.0 |
| 20260508191526 | 68 | 328 | 3.0 | 9.0 | 0.00 | 0.00 | 0.00 | 50 | 1015.4 |
| 20260508190023 | 68 | 53 | 2.0 | 12.0 | 0.00 | 0.00 | 0.00 | 50 | 1015.8 |
| 20260508184509 | 68 | 25 | 3.0 | 12.0 | 0.00 | 0.00 | 0.00 | 53 | 1015.9 |
| 20260508183014 | 68 | 2 | 10.0 | 15.0 | 0.00 | 0.00 | 0.00 | 50 | 1016.1 |
| 20260508181526 | 67 | 113 | 2.0 | 14.0 | 0.00 | 0.00 | 0.00 | 55 | 1016.2 |
| 20260508180026 | 67 | 287 | 4.0 | 14.0 | 0.00 | 0.00 | 0.00 | 52 | 1016.4 |
| 20260508174527 | 67 | 18 | 1.0 | 13.0 | 0.00 | 0.00 | 0.00 | 49 | 1016.6 |
| 20260508173031 | 67 | 65 | 7.0 | 14.0 | 0.00 | 0.00 | 0.00 | 51 | 1016.7 |
| 20260508171523 | 68 | 140 | 1.0 | 10.0 | 0.00 | 0.00 | 0.00 | 55 | 1017.1 |
| 20260508170024 | 66 | 271 | 1.0 | 10.0 | 0.00 | 0.00 | 0.00 | 53 | 1017.3 |
| 20260508164526 | 66 | 311 | 2.0 | 10.0 | 0.00 | 0.00 | 0.00 | 54 | 1017.6 |
| 20260508163028 | 66 | 16 | 4.0 | 11.0 | 0.00 | 0.00 | 0.00 | 52 | 1017.8 |
| 20260508161531 | 66 | 342 | 8.0 | 11.0 | 0.00 | 0.00 | 0.00 | 55 | 1018.0 |
| 20260508160028 | 66 | 47 | 6.0 | 9.0 | 0.00 | 0.00 | 0.00 | 51 | 1018.2 |
| 20260508154529 | 65 | 339 | 5.0 | 17.0 | 0.00 | 0.00 | 0.00 | 52 | 1018.3 |
| 20260508153037 | 65 | 8 | 5.0 | 8.0 | 0.00 | 0.00 | 0.00 | 53 | 1018.3 |
| 20260508151530 | 64 | 253 | 1.0 | 3.0 | 0.00 | 0.00 | 0.00 | 50 | 1018.4 |
| 20260508150030 | 63 | 35 | 2.0 | 5.0 | 0.00 | 0.00 | 0.00 | 51 | 1018.4 |
| 20260508144519 | 63 | 192 | 2.0 | 9.0 | 0.00 | 0.00 | 0.00 | 50 | 1018.3 |
| 20260508143025 | 62 | 103 | 1.0 | 6.0 | 0.00 | 0.00 | 0.00 | 53 | 1018.5 |
| 20260508141525 | 61 | 173 | 2.0 | 4.0 | 0.00 | 0.00 | 0.00 | 57 | 1018.6 |
| 20260508140012 | 61 | 131 | 0.0 | 3.0 | 0.00 | 0.01 | 0.00 | 57 | 1018.7 |
| 20260508134507 | 60 | 252 | 0.0 | 4.0 | 0.00 | 0.01 | 0.00 | 63 | 1018.6 |
| 20260508133014 | 59 | 198 | 4.0 | 6.0 | 0.00 | 0.01 | 0.00 | 68 | 1018.6 |
| 20260508131516 | 58 | 80 | 0.0 | 1.0 | 0.00 | 0.02 | 0.00 | 79 | 1018.5 |
| 20260508130009 | 56 | 60 | 0.0 | 0.0 | 0.00 | 0.04 | 0.00 | 82 | 1018.5 |
| 20260508124516 | 55 | 61 | 0.0 | 0.0 | 0.00 | 0.04 | 0.00 | 87 | 1018.4 |
| 20260508123012 | 54 | 61 | 0.0 | 0.0 | 0.00 | 0.05 | 0.00 | 90 | 1018.3 |
| 20260508121516 | 51 | 62 | 0.0 | 0.0 | 0.00 | 0.06 | 0.00 | 95 | 1018.0 |
| 20260508120011 | 49 | 62 | 0.0 | 0.0 | 0.00 | 0.07 | 0.00 | 96 | 1017.8 |
| 20260508114513 | 46 | 62 | 0.0 | 0.0 | 0.00 | 0.07 | 0.00 | 96 | 1017.7 |
| 20260508113019 | 45 | 62 | 0.0 | 1.0 | 0.00 | 0.09 | 0.00 | 96 | 1017.5 |
| 20260508111518 | 44 | 59 | 0.0 | 1.0 | 0.00 | 0.14 | 0.00 | 96 | 1017.3 |
| 20260508110016 | 44 | 58 | 0.0 | 1.0 | 0.00 | 0.15 | 0.00 | 95 | 1017.0 |
| 20260508104509 | 44 | 68 | 0.0 | 1.0 | 0.00 | 0.15 | 0.00 | 95 | 1016.7 |
| 20260508103018 | 44 | 70 | 0.0 | 1.0 | 0.00 | 0.16 | 0.00 | 95 | 1016.5 |
| 20260508101516 | 44 | 60 | 0.0 | 1.0 | 0.00 | 0.16 | 0.00 | 95 | 1016.3 |
| 20260508100019 | 44 | 63 | 0.0 | 2.0 | 0.00 | 0.16 | 0.00 | 95 | 1015.9 |
| 20260508094521 | 45 | 71 | 0.0 | 0.0 | 0.00 | 0.16 | 0.00 | 95 | 1015.8 |
| 20260508093021 | 45 | 71 | 0.0 | 1.0 | 0.00 | 0.16 | 0.00 | 95 | 1015.9 |
| 20260508091521 | 45 | 51 | 0.0 | 2.0 | 0.00 | 0.16 | 0.00 | 95 | 1015.8 |
| 20260508090022 | 45 | 65 | 0.0 | 1.0 | 0.00 | 0.16 | 0.00 | 95 | 1015.7 |
| 20260508084522 | 46 | 65 | 0.0 | 1.0 | 0.00 | 0.16 | 0.00 | 95 | 1015.6 |
| 20260508083020 | 46 | 49 | 1.0 | 2.0 | 0.00 | 0.16 | 0.00 | 95 | 1015.4 |
| 20260508081523 | 46 | 74 | 0.0 | 1.0 | 0.00 | 0.17 | 0.00 | 95 | 1015.5 |
| 20260508080020 | 46 | 74 | 0.0 | 1.0 | 0.00 | 0.17 | 0.00 | 94 | 1015.4 |
| 20260508074520 | 46 | 74 | 0.0 | 1.0 | 0.00 | 0.17 | 0.00 | 94 | 1015.3 |
| 20260508073019 | 46 | 74 | 0.0 | 1.0 | 0.00 | 0.17 | 0.00 | 95 | 1015.1 |
| 20260508071528 | 47 | 23 | 2.0 | 2.0 | 0.00 | 0.17 | 0.00 | 94 | 1015.0 |
| 20260508070021 | 47 | 68 | 0.0 | 2.0 | 0.00 | 0.17 | 0.00 | 94 | 1014.9 |
| 20260508064519 | 47 | 38 | 0.0 | 2.0 | 0.00 | 0.17 | 0.00 | 94 | 1014.9 |
| 20260508063024 | 48 | 67 | 0.0 | 1.0 | 0.00 | 0.17 | 0.00 | 94 | 1014.8 |
| 20260508061527 | 48 | 56 | 0.0 | 2.0 | 0.00 | 0.18 | 0.00 | 94 | 1014.8 |
| 20260508060024 | 48 | 67 | 0.0 | 2.0 | 0.00 | 0.22 | 0.00 | 94 | 1014.8 |
| 20260508054524 | 48 | 79 | 0.0 | 2.0 | 0.00 | 0.23 | 0.00 | 94 | 1015.0 |
| 20260508053020 | 49 | 68 | 0.0 | 1.0 | 0.00 | 0.23 | 0.00 | 94 | 1015.0 |
| 20260508051528 | 49 | 69 | 0.0 | 1.0 | 0.00 | 0.24 | 0.00 | 93 | 1015.0 |
| 20260508050008 | 49 | 49 | 1.0 | 2.0 | 0.00 | 0.28 | 0.00 | 93 | 1014.9 |
| 20260508044508 | 50 | 56 | 0.0 | 2.0 | 0.00 | 0.34 | 0.00 | 93 | 1014.8 |
| 20260508043018 | 50 | 75 | 0.0 | 1.0 | 0.00 | 0.36 | 0.00 | 93 | 1014.6 |
| 20260508041518 | 51 | 75 | 0.0 | 1.0 | 0.00 | 0.36 | 0.00 | 92 | 1014.4 |
| 20260508040023 | 51 | 72 | 0.0 | 0.0 | 0.00 | 0.36 | 0.00 | 91 | 1014.4 |
| 20260508034513 | 52 | 47 | 0.0 | 2.0 | 0.00 | 0.36 | 0.36 | 91 | 1014.5 |
| 20260508033021 | 52 | 46 | 1.0 | 2.0 | 0.00 | 0.36 | 0.36 | 91 | 1014.5 |
| 20260508031519 | 53 | 65 | 1.0 | 3.0 | 0.00 | 0.36 | 0.36 | 90 | 1014.4 |
| 20260508030026 | 53 | 72 | 0.0 | 2.0 | 0.00 | 0.36 | 0.36 | 88 | 1014.2 |
| 20260508024531 | 54 | 46 | 0.0 | 2.0 | 0.00 | 0.36 | 0.36 | 88 | 1014.1 |
| 20260508023011 | 55 | 54 | 0.0 | 1.0 | 0.00 | 0.37 | 0.36 | 87 | 1013.7 |
| 20260508021518 | 56 | 47 | 1.0 | 2.0 | 0.00 | 0.43 | 0.36 | 85 | 1013.5 |
| 20260508020020 | 56 | 119 | 0.0 | 1.0 | 0.00 | 0.44 | 0.36 | 82 | 1013.4 |
| 20260508014524 | 57 | 127 | 0.0 | 1.0 | 0.00 | 0.44 | 0.36 | 81 | 1013.2 |
| 20260508013027 | 58 | 127 | 0.0 | 1.0 | 0.00 | 0.46 | 0.36 | 79 | 1012.9 |
| 20260508011513 | 59 | 126 | 0.0 | 1.0 | 0.00 | 0.46 | 0.36 | 76 | 1012.6 |
| 20260508010020 | 60 | 94 | 0.0 | 2.0 | 0.00 | 0.47 | 0.36 | 74 | 1012.2 |
| 20260508004526 | 61 | 117 | 0.0 | 2.0 | 0.00 | 0.55 | 0.36 | 71 | 1012.1 |
| 20260508003023 | 62 | 123 | 0.0 | 8.0 | 0.00 | 0.56 | 0.36 | 72 | 1012.0 |
| 20260508001526 | 63 | 214 | 2.0 | 6.0 | 0.00 | 0.61 | 0.36 | 69 | 1011.5 |
| 20260508000011 | 64 | 229 | 3.0 | 8.0 | 0.00 | 0.62 | 0.36 | 69 | 1011.3 |
| 20260507234521 | 65 | 194 | 3.0 | 9.0 | 0.00 | 0.64 | 0.36 | 68 | 1011.2 |
| 20260507233028 | 67 | 209 | 6.0 | 14.0 | 0.00 | 0.74 | 0.36 | 65 | 1010.8 |
| 20260507231534 | 69 | 210 | 5.0 | 13.0 | 0.00 | 0.79 | 0.36 | 63 | 1010.3 |
| 20260507230026 | 70 | 207 | 6.0 | 13.0 | 0.00 | 0.82 | 0.36 | 57 | 1009.9 |
| 20260507224512 | 72 | 184 | 5.0 | 14.0 | 0.00 | 0.82 | 0.36 | 59 | 1009.7 |
| 20260507223017 | 73 | 218 | 3.0 | 8.0 | 0.00 | 0.85 | 0.36 | 58 | 1009.2 |
| 20260507221522 | 74 | 171 | 6.0 | 13.0 | 0.00 | 0.86 | 0.36 | 57 | 1008.8 |
| 20260507220026 | 75 | 252 | 2.0 | 11.0 | 0.00 | 0.86 | 0.36 | 60 | 1008.7 |
| 20260507214529 | 75 | 163 | 3.0 | 11.0 | 0.00 | 0.86 | 0.36 | 60 | 1008.4 |